[[{"header":{"parameterUnit":"m.s-1","parameterCategory":1,"la1":30.2992,"la2":30.254,"lo1":-89.0895,"lo2":-89.0443,"dy":0.0025,"dx":0.0025,"nx":19,"ny":19,"refTime":"2026-05-18T03:00:00:Z","depth":0,"parameterNumber":2,"parameterNumberName":"U-component_of_WINDS"},"data":[0,0,0,-5.263,-5.2631,-5.2679,-5.2679,-5.2761,-5.2762,0,0,0,0,0,0,0,0,0,0,0,-5.2628,-5.2629,-5.263,-5.2631,-5.2679,-5.2679,-5.2761,-5.2762,0,0,0,0,0,0,0,0,0,0,0,-5.2627,-5.2628,-5.263,-5.2631,-5.2679,-5.2679,-5.276,-5.2717,0,0,0,0,0,0,0,0,0,0,-5.2667,-5.2677,-5.2628,-5.263,-5.2632,-5.2679,-5.2679,-5.2714,-5.272,-5.2748,0,-5.2776,0,-5.2771,-5.2768,-5.2769,0,0,0,-5.2622,-5.2673,-5.2675,-5.263,-5.2632,-5.2679,-5.2655,-5.2717,-5.2723,-5.2755,-5.2777,-5.278,-5.2772,-5.2769,-5.277,-5.2965,-5.2966,0,0,-5.2619,-5.2643,-5.2671,-5.2679,-5.2673,-5.2653,-5.2656,-5.272,-5.2746,-5.2777,-5.2781,-5.2773,-5.277,-5.2771,-5.2963,-5.2965,0,0,0,-5.2618,-5.2641,-5.2641,-5.2676,-5.2684,-5.2655,-5.2658,-5.2743,-5.2741,-5.2782,-5.2774,-5.277,-5.2772,-5.2962,-5.2964,-5.3053,0,0,0,-5.2616,-5.264,-5.2641,-5.2656,-5.2683,-5.2714,-5.268,-5.2737,-5.2743,-5.2774,-5.277,-5.2773,-5.296,-5.2963,-5.3047,-5.309,0,0,0,-5.262,-5.2641,-5.2652,-5.2657,-5.2678,-5.2712,-5.2714,-5.2738,-5.2739,-5.2769,-5.2773,-5.2959,-5.2962,-5.3042,-5.3081,-5.3147,0,0,0,-5.2632,-5.273,-5.2654,-5.2761,-5.2678,-5.2768,-5.2713,-5.2779,-5.2815,-5.2771,-5.296,-5.2964,-5.304,-5.3076,-5.3142,-5.3205,-5.3234,0,0,-5.2769,-5.2747,-5.2809,-5.2742,-5.2851,-5.2759,-5.2881,-5.2891,-5.2873,-5.2935,-5.2939,-5.3049,-5.3081,-5.3146,-5.3394,-5.3417,0,0,0,-5.286,-5.2904,-5.2928,-5.2964,-5.2976,-5.2989,-5.2978,-5.2983,-5.3035,-5.291,-5.3091,-5.3109,-5.3146,-5.3175,-5.3195,-5.3225,-5.2979,-5.2978,-5.2978,-5.3085,-5.3057,-5.3157,-5.3135,-5.3171,-5.3161,-5.3187,-5.3191,-5.3151,-5.3195,-5.3212,-5.3366,-5.3401,-5.3416,-5.3448,-5.3246,-5.3246,-5.3246,-5.3246,-5.3282,-5.3339,-5.3287,-5.3364,-5.3334,-5.3398,-5.3394,-5.3364,-5.3419,-5.335,-5.3382,-5.3307,-5.3443,-5.3469,-5.3253,-5.3252,-5.3251,-5.325,-5.325,-5.3424,-5.3446,-5.3452,-5.3502,-5.3545,-5.352,-5.3576,-5.3548,-5.3521,-5.3552,-5.3567,-5.3565,-5.3558,-5.3562,-5.3562,-5.3563,-5.3563,-5.3564,-5.3564,-5.3568,-5.3571,-5.3622,-5.3645,-5.3665,-5.3688,-5.3682,-5.3701,-5.3714,-5.3688,-5.3688,-5.3644,-5.3462,-5.3415,-5.3572,-5.3571,-5.357,-5.3569,-5.3568,-5.3773,-5.3723,-5.3802,-5.3823,-5.3847,-5.3892,-5.3856,-5.3898,-5.3909,-5.3938,-5.3889,-5.376,-5.3735,-5.3719,-5.368,-5.3895,-5.3895,-5.3895,-5.3895,-5.3891,-5.3878,-5.3952,-5.3987,-5.4018,-5.3995,-5.4085,-5.4082,-5.407,-5.4076,-5.4041,-5.3988,-5.3973,-5.3957,-5.3936,-5.3899,-5.4166,-5.4166,-5.4166,-5.4015,-5.4003,-5.4085,-5.4074,-5.4092,-5.4109,-5.4192,-5.4235,-5.4211,-5.4176,-5.4079,-5.4068,-5.3982,-5.3956,-5.3915,-5.3883,-5.3814,0,0]},{"header":{"parameterUnit":"m.s-1","parameterCategory":1,"la1":30.2992,"la2":30.254,"lo1":-89.0895,"lo2":-89.0443,"dy":0.0025,"dx":0.0025,"nx":19,"ny":19,"refTime":"2026-05-18T03:00:00:Z","depth":0,"parameterNumber":3,"parameterNumberName":"V-component_of_WINDS"},"data":[0,0,0,2.0177,2.0178,2.0193,2.0193,2.02,2.02,0,0,0,0,0,0,0,0,0,0,0,2.0165,2.0165,2.0177,2.0178,2.0193,2.0193,2.02,2.02,0,0,0,0,0,0,0,0,0,0,0,2.0166,2.0165,2.0165,2.0178,2.0193,2.0193,2.02,2.0193,0,0,0,0,0,0,0,0,0,0,2.018,2.0162,2.0165,2.0165,2.0178,2.0193,2.0193,2.0192,2.0193,2.0187,0,2.0181,0,2.019,2.0199,2.0199,0,0,0,2.0183,2.0161,2.0172,2.0165,2.0178,2.0193,2.0187,2.0193,2.0194,2.0188,2.0181,2.0182,2.019,2.0199,2.0199,2.0151,2.0151,0,0,2.0182,2.0164,2.0172,2.0172,2.017,2.0187,2.0188,2.0194,2.0184,2.0181,2.0182,2.019,2.0199,2.0199,2.0151,2.0151,0,0,0,2.0176,2.0163,2.0174,2.0172,2.0175,2.0187,2.0188,2.0184,2.0189,2.0182,2.0191,2.0199,2.0199,2.0152,2.0151,2.0111,0,0,0,2.0176,2.016,2.0174,2.0163,2.0175,2.018,2.0178,2.0189,2.019,2.0191,2.0199,2.0199,2.0153,2.0152,2.0114,2.0096,0,0,0,2.0167,2.0159,2.0159,2.0162,2.0168,2.018,2.0186,2.019,2.0195,2.0199,2.0199,2.0153,2.0152,2.0116,2.0099,2.0079,0,0,0,2.0152,2.0121,2.0158,2.0127,2.0167,2.0155,2.0186,2.0178,2.0177,2.0199,2.0152,2.0151,2.0116,2.0101,2.0081,2.0059,2.0049,0,0,2.0103,2.0115,2.0098,2.0131,2.0108,2.0155,2.0126,2.0141,2.0157,2.0152,2.0151,2.0113,2.0099,2.0079,1.9992,1.9983,0,0,0,2.0077,2.0065,2.0063,2.0061,2.0073,2.0082,2.0104,2.011,2.0107,2.0151,2.01,2.0093,2.0082,2.0072,2.0065,2.0057,2.0146,2.0146,2.0146,1.9982,2.0006,1.998,2.0006,2.0004,2.0028,2.0029,2.0041,2.0064,2.0052,2.0051,1.9995,1.9983,1.9978,1.997,2.0041,2.004,2.004,2.004,1.9914,1.9901,1.9934,1.9922,1.9947,1.9936,1.9958,1.9975,1.9969,1.9998,1.9989,2.0019,1.9968,1.9962,2.0037,2.0038,2.0038,2.0038,2.0039,1.9855,1.9854,1.9862,1.9864,1.9862,1.9889,1.9883,1.9905,1.9926,1.9918,1.992,1.9921,1.9925,1.9917,1.9917,1.9917,1.9917,1.9917,1.9917,1.9792,1.9803,1.9795,1.9806,1.9809,1.9816,1.984,1.9843,1.9853,1.987,1.987,1.9895,1.9958,1.9974,1.9914,1.9914,1.9915,1.9915,1.9915,1.9716,1.9737,1.9725,1.9728,1.9743,1.9741,1.977,1.9776,1.9782,1.9778,1.9805,1.9847,1.9861,1.9867,1.988,1.9799,1.9799,1.9799,1.9799,1.9668,1.9677,1.967,1.9674,1.968,1.9706,1.9691,1.971,1.9732,1.9738,1.9752,1.9772,1.9777,1.9787,1.9795,1.9808,1.9711,1.9711,1.9711,1.9623,1.9634,1.9618,1.9641,1.9655,1.9666,1.9654,1.9657,1.9687,1.9708,1.9743,1.9746,1.9778,1.9787,1.9809,1.9821,1.9845,0,0]}]]